,,,PA_Meas_PMT16A,,PR_Meas_QMR101_102,,RH_Meas_QMH101,,SR_Meas_QMS101,,TA_Meas_QMH101,,GenWind,,GenWind,
date,time,status,PA,status,PR,status,RH,status,SR,status,TA,status,DirAvg,status,SpdAvg,
2011-08-03, 00:00:05,VALID,1001.16,VALID,0,VALID,63.2724,VALID,0,VALID,27.5084,VALID,179,VALID,2.56523,
2011-08-03, 00:01:05,VALID,1001.13,VALID,0,VALID,63.2419,VALID,0,VALID,27.4868,VALID,187,VALID,2.25547,
2011-08-03, 00:02:05,VALID,1001.14,VALID,0,VALID,63.1046,VALID,0,VALID,27.5279,VALID,202,VALID,2.56133,
2011-08-03, 00:03:05,VALID,1001.09,VALID,0,VALID,62.952,VALID,0,VALID,27.5279,VALID,202,VALID,2.52539,
2011-08-03, 00:04:05,VALID,1001.09,VALID,0,VALID,63.0283,VALID,0,VALID,27.5063,VALID,208,VALID,2.27773,
2011-08-03, 00:05:05,VALID,1001.07,VALID,0,VALID,63.1198,VALID,0,VALID,27.5279,VALID,205,VALID,2.02266,
2011-08-03, 00:06:05,VALID,1001.04,VALID,0,VALID,63.2343,VALID,0,VALID,27.4868,VALID,218,VALID,1.1207,
2011-08-03, 00:07:05,VALID,1001.07,VALID,0,VALID,63.4784,VALID,0,VALID,27.4498,VALID,196,VALID,1.52539,
2011-08-03, 00:08:05,VALID,1001.06,VALID,0,VALID,63.5318,VALID,0,VALID,27.4107,VALID,189,VALID,1.36797,
2011-08-03, 00:09:05,VALID,1001.06,VALID,0,VALID,63.8828,VALID,0,VALID,27.3696,VALID,196,VALID,1.60352,
2011-08-03, 00:10:05,VALID,1001.07,VALID,0,VALID,63.7226,VALID,0,VALID,27.35,VALID,213,VALID,2.20586,
2011-08-03, 00:11:05,VALID,1001.08,VALID,0,VALID,63.8828,VALID,0,VALID,27.3717,VALID,205,VALID,1.08086,
2011-08-03, 00:12:05,VALID,1001.08,VALID,0,VALID,64.0583,VALID,0,VALID,27.311,VALID,205,VALID,1.58867,
2011-08-03, 00:13:05,VALID,1001.09,VALID,0,VALID,64.043,VALID,0,VALID,27.2915,VALID,207,VALID,2.04805,
2011-08-03, 00:14:05,VALID,1001.08,VALID,0,VALID,64.0735,VALID,0,VALID,27.311,VALID,192,VALID,1.55273,
2011-08-03, 00:15:05,VALID,1001.07,VALID,0,VALID,63.9667,VALID,0,VALID,27.2719,VALID,207,VALID,0.880078,
2011-08-03, 00:16:05,VALID,1001.07,VALID,0,VALID,64.1651,VALID,0,VALID,27.2719,VALID,196,VALID,0.833984,
2011-08-03, 00:17:05,VALID,1001.08,VALID,0,VALID,64.3482,VALID,0,VALID,27.2349,VALID,185,VALID,1.65078,
2011-08-03, 00:18:05,VALID,1001.06,VALID,0,VALID,64.8365,VALID,0,VALID,27.1352,VALID,154,VALID,1.69141,
2011-08-03, 00:19:05,VALID,1001.06,VALID,0,VALID,65.6834,VALID,0,VALID,26.981,VALID,142,VALID,1.70039,
2011-08-03, 00:20:05,VALID,1001.05,VALID,0,VALID,67.957,VALID,0,VALID,26.7251,VALID,112,VALID,1.55781,
2011-08-03, 00:21:05,VALID,1001.04,VALID,0,VALID,72.1381,VALID,0,VALID,26.4126,VALID,95,VALID,1.37266,
2011-08-03, 00:22:05,VALID,1001.02,VALID,0,VALID,74.6635,VALID,0,VALID,26.0026,VALID,89,VALID,0.980859,
2011-08-03, 00:23:05,VALID,1000.99,VALID,0,VALID,75.8079,VALID,0,VALID,25.6921,VALID,79,VALID,1.02305,
2011-08-03, 00:24:05,VALID,1000.99,VALID,0,VALID,76.609,VALID,0,VALID,25.3778,VALID,79,VALID,0.557813,
2011-08-03, 00:25:05,VALID,1000.97,VALID,0,VALID,77.3949,VALID,0,VALID,25.1631,VALID,79,VALID,0.573047,
2011-08-03, 00:26:05,VALID,1000.95,VALID,0,VALID,78.0968,VALID,0,VALID,24.9679,VALID,79,VALID,0.29375,
2011-08-03, 00:27:05,VALID,1000.93,VALID,0,VALID,78.6766,VALID,0,VALID,24.8313,VALID,79,VALID,0.246484,
2011-08-03, 00:28:05,VALID,1000.9,VALID,0,VALID,78.9895,VALID,0,VALID,24.7337,VALID,79,VALID,0.0359375,
2011-08-03, 00:29:05,VALID,1000.9,VALID,0,VALID,79.3709,VALID,0,VALID,24.6361,VALID,79,VALID,0.0285156,
2011-08-03, 00:30:05,VALID,1000.89,VALID,0,VALID,79.5769,VALID,0,VALID,24.5794,VALID,199,VALID,0.655859,
2011-08-03, 00:31:05,VALID,1000.9,VALID,0,VALID,76.3115,VALID,0,VALID,24.7922,VALID,230,VALID,1.1125,
2011-08-03, 00:32:05,VALID,1000.89,VALID,0,VALID,74.7321,VALID,0,VALID,25.0479,VALID,199,VALID,1.12383,
2011-08-03, 00:33:05,VALID,1000.89,VALID,0,VALID,73.3206,VALID,0,VALID,25.3017,VALID,186,VALID,1.01406,
2011-08-03, 00:34:05,VALID,1000.91,VALID,0,VALID,72.077,VALID,0,VALID,25.575,VALID,194,VALID,1.70234,
2011-08-03, 00:35:05,VALID,1000.91,VALID,0,VALID,71.1157,VALID,0,VALID,25.7683,VALID,221,VALID,1.25625,
2011-08-03, 00:36:05,VALID,1000.9,VALID,0,VALID,70.5358,VALID,0,VALID,25.9049,VALID,184,VALID,1.36914,
2011-08-03, 00:37:05,VALID,1000.9,VALID,0,VALID,69.8415,VALID,0,VALID,26.1022,VALID,208,VALID,1.52852,
2011-08-03, 00:38:05,VALID,1000.87,VALID,0,VALID,69.3075,VALID,0,VALID,26.1803,VALID,201,VALID,1.62188,
2011-08-03, 00:39:05,VALID,1000.85,VALID,0,VALID,69.0328,VALID,0,VALID,26.2584,VALID,200,VALID,1.50898,
2011-08-03, 00:40:05,VALID,1000.83,VALID,0,VALID,69.5898,VALID,0,VALID,26.2564,VALID,225,VALID,0.646484,
2011-08-03, 00:41:05,VALID,1000.8,VALID,0,VALID,69.5516,VALID,0,VALID,26.1803,VALID,223,VALID,1.20352,
2011-08-03, 00:42:05,VALID,1000.82,VALID,0,VALID,69.8339,VALID,0,VALID,26.1197,VALID,260,VALID,0.898828,
2011-08-03, 00:43:05,VALID,1000.8,VALID,0,VALID,71.6192,VALID,0,VALID,26.0026,VALID,304,VALID,0.755469,
2011-08-03, 00:44:05,VALID,1000.85,VALID,0,VALID,72.9926,VALID,0,VALID,25.8288,VALID,325,VALID,0.736328,
2011-08-03, 00:45:05,VALID,1000.81,VALID,0,VALID,74.2591,VALID,0,VALID,25.5555,VALID,325,VALID,0.680859,
2011-08-03, 00:46:05,VALID,1000.87,VALID,0,VALID,75.2967,VALID,0,VALID,25.2997,VALID,331,VALID,0.582812,
2011-08-03, 00:47:05,VALID,1000.88,VALID,0,VALID,75.8918,VALID,0,VALID,25.1064,VALID,331,VALID,0.427344,
2011-08-03, 00:48:05,VALID,1000.88,VALID,0,VALID,76.5022,VALID,0,VALID,24.9698,VALID,331,VALID,0.43125,
2011-08-03, 00:49:05,VALID,1000.87,VALID,0,VALID,76.8761,VALID,0,VALID,24.8508,VALID,331,VALID,0.507813,
2011-08-03, 00:50:05,VALID,1000.86,VALID,0,VALID,77.2499,VALID,0,VALID,24.7746,VALID,331,VALID,0.391406,
2011-08-03, 00:51:05,VALID,1000.85,VALID,0,VALID,77.5398,VALID,0,VALID,24.6556,VALID,331,VALID,0.196484,
2011-08-03, 00:52:05,VALID,1000.81,VALID,0,VALID,77.4559,VALID,0,VALID,24.5971,VALID,331,VALID,0.371484,
2011-08-03, 00:53:05,VALID,1000.79,VALID,0,VALID,77.3796,VALID,0,VALID,24.5599,VALID,331,VALID,0.228906,
2011-08-03, 00:54:05,VALID,1000.8,VALID,0,VALID,77.8374,VALID,0,VALID,24.5013,VALID,331,VALID,0.350781,
2011-08-03, 00:55:05,VALID,1000.79,VALID,0,VALID,78.4401,VALID,0,VALID,24.4623,VALID,331,VALID,0.6375,
2011-08-03, 00:56:05,VALID,1000.83,VALID,0,VALID,79.6456,VALID,0,VALID,24.4233,VALID,331,VALID,0.599609,
2011-08-03, 00:57:05,VALID,1000.82,VALID,0,VALID,80.0576,VALID,0,VALID,24.3647,VALID,338,VALID,0.910937,
2011-08-03, 00:58:05,VALID,1000.8,VALID,0,VALID,81.0037,VALID,0,VALID,24.3257,VALID,15,VALID,1.16133,
2011-08-03, 00:59:05,VALID,1000.82,VALID,0,VALID,81.7132,VALID,0,VALID,24.2866,VALID,17,VALID,1.15039,
2011-08-03, 01:00:05,VALID,1000.79,VALID,0,VALID,82.0337,VALID,0,VALID,24.1872,VALID,24,VALID,1.39648,
2011-08-03, 01:01:05,VALID,1000.78,VALID,0,VALID,82.6746,VALID,0,VALID,24.1305,VALID,24,VALID,1.43945,
2011-08-03, 01:02:05,VALID,1000.76,VALID,0,VALID,83.0713,VALID,0,VALID,24.0506,VALID,29,VALID,1.46953,
2011-08-03, 01:03:05,VALID,1000.74,VALID,0,VALID,84.17,VALID,0,VALID,24.0134,VALID,29,VALID,1.56953,
2011-08-03, 01:04:05,VALID,1000.74,VALID,0,VALID,84.9863,VALID,0,VALID,23.914,VALID,29,VALID,1.52773,
2011-08-03, 01:05:05,VALID,1000.75,VALID,0,VALID,85.6959,VALID,0,VALID,23.8555,VALID,31,VALID,1.43008,
2011-08-03, 01:06:05,VALID,1000.74,VALID,0,VALID,86.1766,VALID,0,VALID,23.7793,VALID,38,VALID,1.43867,
2011-08-03, 01:07:05,VALID,1000.72,VALID,0,VALID,86.5962,VALID,0,VALID,23.7012,VALID,42,VALID,1.73359,
2011-08-03, 01:08:05,VALID,1000.73,VALID,0,VALID,86.8556,VALID,0,VALID,23.6427,VALID,42,VALID,1.40937,
2011-08-03, 01:09:05,VALID,1000.71,VALID,0,VALID,86.9319,VALID,0,VALID,23.6232,VALID,42,VALID,1.17383,
2011-08-03, 01:10:05,VALID,1000.68,VALID,0,VALID,86.9853,VALID,0,VALID,23.5628,VALID,44,VALID,1.57305,
2011-08-03, 01:11:05,VALID,1000.65,VALID,0,VALID,86.97,VALID,0,VALID,23.6036,VALID,44,VALID,1.52578,
2011-08-03, 01:12:05,VALID,1000.63,VALID,0,VALID,86.8251,VALID,0,VALID,23.6019,VALID,44,VALID,1.48203,
2011-08-03, 01:13:05,VALID,1000.6,VALID,0,VALID,86.5351,VALID,0,VALID,23.6427,VALID,44,VALID,1.69453,
2011-08-03, 01:14:05,VALID,1000.59,VALID,0,VALID,86.1689,VALID,0,VALID,23.6799,VALID,44,VALID,1.55313,
2011-08-03, 01:15:05,VALID,1000.56,VALID,0,VALID,86.0545,VALID,0,VALID,23.7402,VALID,44,VALID,1.28984,
2011-08-03, 01:16:05,VALID,1000.59,VALID,0,VALID,86.1308,VALID,0,VALID,23.7597,VALID,49,VALID,1.03672,
2011-08-03, 01:17:05,VALID,1000.62,VALID,0,VALID,86.1308,VALID,0,VALID,23.7402,VALID,51,VALID,0.798047,
2011-08-03, 01:18:05,VALID,1000.59,VALID,0,VALID,86.3597,VALID,0,VALID,23.7189,VALID,44,VALID,1.03203,
2011-08-03, 01:19:05,VALID,1000.61,VALID,0,VALID,86.1918,VALID,0,VALID,23.7207,VALID,34,VALID,0.327344,
2011-08-03, 01:20:05,VALID,1000.59,VALID,0,VALID,86.2681,VALID,0,VALID,23.6817,VALID,34,VALID,0.271875,
2011-08-03, 01:21:05,VALID,1000.58,VALID,0,VALID,86.6115,VALID,0,VALID,23.6427,VALID,60,VALID,0.954687,
2011-08-03, 01:22:05,VALID,1000.57,VALID,0,VALID,87.1074,VALID,0,VALID,23.6409,VALID,36,VALID,0.872266,
2011-08-03, 01:23:05,VALID,1000.58,VALID,0,VALID,87.3744,VALID,0,VALID,23.6427,VALID,52,VALID,1.00469,
2011-08-03, 01:24:05,VALID,1000.61,VALID,0,VALID,87.6262,VALID,0,VALID,23.6232,VALID,49,VALID,0.809766,
2011-08-03, 01:25:04,VALID,1000.59,VALID,0,VALID,87.9619,VALID,0,VALID,23.6036,VALID,64,VALID,0.995313,
2011-08-03, 01:26:04,VALID,1000.57,VALID,0,VALID,88.1908,VALID,0,VALID,23.6036,VALID,64,VALID,0.648047,
2011-08-03, 01:27:04,VALID,1000.56,VALID,0,VALID,88.29,VALID,0,VALID,23.5841,VALID,64,VALID,0.637891,
2011-08-03, 01:28:04,VALID,1000.57,VALID,0,VALID,88.4044,VALID,0,VALID,23.5841,VALID,16,VALID,0.730469,
2011-08-03, 01:29:04,VALID,1000.55,VALID,0,VALID,88.5189,VALID,0,VALID,23.5646,VALID,16,VALID,0.387891,
2011-08-03, 01:30:04,VALID,1000.57,VALID,0,VALID,88.5646,VALID,0,VALID,23.5451,VALID,16,VALID,0.451562,
2011-08-03, 01:31:04,VALID,1000.51,VALID,0,VALID,88.6562,VALID,0,VALID,23.5451,VALID,14,VALID,0.869531,
2011-08-03, 01:32:04,VALID,1000.54,VALID,0,VALID,88.8851,VALID,0,VALID,23.5061,VALID,10,VALID,1.1082,
2011-08-03, 01:33:04,VALID,1000.52,VALID,0,VALID,89.0377,VALID,0,VALID,23.4848,VALID,9,VALID,1.43711,
2011-08-03, 01:34:04,VALID,1000.56,VALID,0,VALID,89.0758,VALID,0,VALID,23.4866,VALID,10,VALID,1.05117,
2011-08-03, 01:35:04,VALID,1000.58,VALID,0,VALID,89.03,VALID,0,VALID,23.4671,VALID,10,VALID,0.965625,
2011-08-03, 01:36:04,VALID,1000.58,VALID,0,VALID,88.9309,VALID,0,VALID,23.4653,VALID,10,VALID,0.863281,
2011-08-03, 01:37:04,VALID,1000.57,VALID,0,VALID,88.824,VALID,0,VALID,23.4653,VALID,10,VALID,0.700391,
2011-08-03, 01:38:04,VALID,1000.6,VALID,0,VALID,88.7096,VALID,0,VALID,23.5061,VALID,10,VALID,0.891797,
2011-08-03, 01:39:04,VALID,1000.61,VALID,0,VALID,88.618,VALID,0,VALID,23.5451,VALID,10,VALID,0.833984,
2011-08-03, 01:40:04,VALID,1000.63,VALID,0,VALID,88.5723,VALID,0,VALID,23.5451,VALID,10,VALID,0.637891,
2011-08-03, 01:41:04,VALID,1000.67,VALID,0,VALID,88.5494,VALID,0,VALID,23.5646,VALID,10,VALID,0.393359,
2011-08-03, 01:42:04,VALID,1000.65,VALID,0,VALID,88.5341,VALID,0,VALID,23.5646,VALID,10,VALID,0.298047,
2011-08-03, 01:43:04,VALID,1000.67,VALID,0,VALID,88.4883,VALID,0,VALID,23.5841,VALID,10,VALID,0.316016,
2011-08-03, 01:44:04,VALID,1000.65,VALID,0,VALID,88.4731,VALID,0,VALID,23.5823,VALID,10,VALID,0.282813,
2011-08-03, 01:45:04,VALID,1000.65,VALID,0,VALID,88.4654,VALID,0,VALID,23.5823,VALID,10,VALID,0.175781,
2011-08-03, 01:46:04,VALID,1000.65,VALID,0,VALID,88.3357,VALID,0,VALID,23.6036,VALID,10,VALID,0.338672,
2011-08-03, 01:47:04,VALID,1000.65,VALID,0,VALID,88.0382,VALID,0,VALID,23.6427,VALID,10,VALID,0.6625,
2011-08-03, 01:48:04,VALID,1000.63,VALID,0,VALID,87.7177,VALID,0,VALID,23.6817,VALID,10,VALID,0.524219,
2011-08-03, 01:49:04,VALID,1000.63,VALID,0,VALID,87.5804,VALID,0,VALID,23.7207,VALID,10,VALID,0.227344,
2011-08-03, 01:50:04,VALID,1000.61,VALID,0,VALID,87.4431,VALID,0,VALID,23.7384,VALID,10,VALID,0,
2011-08-03, 01:51:04,VALID,1000.62,VALID,0,VALID,87.3134,VALID,0,VALID,23.7597,VALID,10,VALID,0,
2011-08-03, 01:52:04,VALID,1000.6,VALID,0,VALID,87.176,VALID,0,VALID,23.7988,VALID,10,VALID,0.16875,
2011-08-03, 01:53:04,VALID,1000.59,VALID,0,VALID,86.9548,VALID,0,VALID,23.797,VALID,10,VALID,0.355859,
2011-08-03, 01:54:04,VALID,1000.57,VALID,0,VALID,86.7717,VALID,0,VALID,23.8768,VALID,10,VALID,0.167969,
2011-08-03, 01:55:04,VALID,1000.54,VALID,0,VALID,86.6343,VALID,0,VALID,23.875,VALID,10,VALID,0,
2011-08-03, 01:56:04,VALID,1000.55,VALID,0,VALID,86.6496,VALID,0,VALID,23.8963,VALID,10,VALID,0.121875,
2011-08-03, 01:57:04,VALID,1000.5,VALID,0,VALID,86.4817,VALID,0,VALID,23.9159,VALID,10,VALID,0.451562,
2011-08-03, 01:58:04,VALID,1000.5,VALID,0,VALID,86.1994,VALID,0,VALID,23.8945,VALID,10,VALID,0.473828,
2011-08-03, 01:59:04,VALID,1000.48,VALID,0,VALID,85.818,VALID,0,VALID,23.9159,VALID,61,VALID,0.960156,
2011-08-03, 02:00:04,VALID,1000.49,VALID,0,VALID,86.4054,VALID,0,VALID,24.0134,VALID,85,VALID,1.74609,
2011-08-03, 02:01:04,VALID,1000.48,VALID,0,VALID,86.6038,VALID,0,VALID,23.9921,VALID,97,VALID,1.28711,
2011-08-03, 02:02:04,VALID,1000.46,VALID,0,VALID,86.4894,VALID,0,VALID,23.9939,VALID,94,VALID,1.50391,
2011-08-03, 02:03:04,VALID,1000.42,VALID,0,VALID,86.2452,VALID,0,VALID,23.9531,VALID,91,VALID,1.09102,
2011-08-03, 02:04:04,VALID,1000.44,VALID,0,VALID,86.1613,VALID,0,VALID,24.0134,VALID,91,VALID,1.02617,
2011-08-03, 02:05:04,VALID,1000.42,VALID,0,VALID,85.6654,VALID,0,VALID,24.0134,VALID,91,VALID,0.861719,
2011-08-03, 02:06:04,VALID,1000.43,VALID,0,VALID,85.9934,VALID,0.112286,VALID,24.0525,VALID,91,VALID,0.790234,
2011-08-03, 02:07:04,VALID,1000.39,VALID,0,VALID,86.1155,VALID,0,VALID,24.0525,VALID,91,VALID,0.808984,
2011-08-03, 02:08:04,VALID,1000.37,VALID,0,VALID,86.3444,VALID,0,VALID,24.0116,VALID,91,VALID,0.539063,
2011-08-03, 02:09:04,VALID,1000.33,VALID,0,VALID,86.4054,VALID,0,VALID,23.9921,VALID,91,VALID,0.435937,
2011-08-03, 02:10:04,VALID,1000.33,VALID,0,VALID,86.4512,VALID,0,VALID,23.9549,VALID,91,VALID,0.628516,
2011-08-03, 02:11:04,VALID,1000.33,VALID,0,VALID,86.5962,VALID,0,VALID,23.8963,VALID,91,VALID,0.282813,
2011-08-03, 02:12:04,VALID,1000.35,VALID,0,VALID,86.6725,VALID,0,VALID,23.8378,VALID,91,VALID,0.589063,
2011-08-03, 02:13:04,VALID,1000.32,VALID,0,VALID,86.642,VALID,0,VALID,23.7793,VALID,91,VALID,0.628516,
2011-08-03, 02:14:04,VALID,1000.32,VALID,0,VALID,86.7793,VALID,0,VALID,23.7597,VALID,91,VALID,0.689844,
2011-08-03, 02:15:04,VALID,1000.33,VALID,0,VALID,86.7946,VALID,0,VALID,23.7189,VALID,91,VALID,0.564453,
2011-08-03, 02:16:04,VALID,1000.38,VALID,0,VALID,86.4665,VALID,0.112286,VALID,23.6994,VALID,91,VALID,0.882813,
2011-08-03, 02:17:04,VALID,1000.4,VALID,0,VALID,86.2147,VALID,0,VALID,23.6994,VALID,91,VALID,1.07148,
2011-08-03, 02:18:04,VALID,1000.44,VALID,0,VALID,86.0774,VALID,0,VALID,23.7402,VALID,91,VALID,1.0668,
2011-08-03, 02:19:04,VALID,1000.47,VALID,0,VALID,86.085,VALID,0,VALID,23.7384,VALID,91,VALID,1.07461,
2011-08-03, 02:20:04,VALID,1000.44,VALID,0,VALID,85.8561,VALID,0,VALID,23.7597,VALID,91,VALID,1.10547,
2011-08-03, 02:21:04,VALID,1000.45,VALID,0,VALID,85.7722,VALID,0,VALID,23.7793,VALID,91,VALID,1.00547,
2011-08-03, 02:22:04,VALID,1000.49,VALID,0,VALID,85.6654,VALID,0,VALID,23.7597,VALID,91,VALID,0.723437,
2011-08-03, 02:23:04,VALID,1000.47,VALID,0,VALID,85.7264,VALID,0,VALID,23.7384,VALID,94,VALID,0.767578,
2011-08-03, 02:24:04,VALID,1000.46,VALID,0,VALID,85.8027,VALID,0,VALID,23.7579,VALID,98,VALID,0.920313,
2011-08-03, 02:25:04,VALID,1000.46,VALID,0,VALID,85.5738,VALID,0,VALID,23.7775,VALID,98,VALID,0.725,
2011-08-03, 02:26:04,VALID,1000.41,VALID,0,VALID,85.322,VALID,0,VALID,23.8183,VALID,101,VALID,0.852344,
2011-08-03, 02:27:04,VALID,1000.41,VALID,0,VALID,84.8719,VALID,0,VALID,23.8378,VALID,93,VALID,0.436719,
2011-08-03, 02:28:04,VALID,1000.43,VALID,0,VALID,84.5896,VALID,0,VALID,23.8573,VALID,93,VALID,0,
2011-08-03, 02:29:04,VALID,1000.43,VALID,0,VALID,84.5133,VALID,0,VALID,23.8378,VALID,93,VALID,0,
2011-08-03, 02:30:04,VALID,1000.43,VALID,0,VALID,84.582,VALID,0,VALID,23.8378,VALID,93,VALID,0.237891,
2011-08-03, 02:31:04,VALID,1000.43,VALID,0,VALID,84.5896,VALID,0,VALID,23.8183,VALID,51,VALID,0.692969,
2011-08-03, 02:32:04,VALID,1000.48,VALID,0,VALID,84.91,VALID,0,VALID,23.7597,VALID,39,VALID,0.807422,
2011-08-03, 02:33:04,VALID,1000.49,VALID,0,VALID,85.261,VALID,0,VALID,23.742,VALID,28,VALID,0.944141,
2011-08-03, 02:34:04,VALID,1000.5,VALID,0,VALID,85.4975,VALID,0,VALID,23.7012,VALID,28,VALID,0.900391,
2011-08-03, 02:35:04,VALID,1000.52,VALID,0,VALID,85.6806,VALID,0,VALID,23.6427,VALID,28,VALID,0.758594,
2011-08-03, 02:36:04,VALID,1000.51,VALID,0,VALID,85.8485,VALID,0,VALID,23.625,VALID,28,VALID,0.659766,
2011-08-03, 02:37:04,VALID,1000.54,VALID,0,VALID,85.879,VALID,0,VALID,23.6036,VALID,28,VALID,0.582031,
2011-08-03, 02:38:04,VALID,1000.6,VALID,0,VALID,85.9706,VALID,0,VALID,23.5841,VALID,28,VALID,0.525,
2011-08-03, 02:39:04,VALID,1000.59,VALID,0,VALID,86.085,VALID,0,VALID,23.5841,VALID,28,VALID,0.583203,
2011-08-03, 02:40:04,VALID,1000.58,VALID,0,VALID,86.0469,VALID,0,VALID,23.5646,VALID,28,VALID,0.616016,
2011-08-03, 02:41:04,VALID,1000.61,VALID,0,VALID,86.0316,VALID,0,VALID,23.5859,VALID,28,VALID,0.499219,
2011-08-03, 02:42:04,VALID,1000.57,VALID,0,VALID,85.9706,VALID,0,VALID,23.5646,VALID,28,VALID,0.425781,
2011-08-03, 02:43:04,VALID,1000.57,VALID,0,VALID,85.8714,VALID,0,VALID,23.6054,VALID,28,VALID,0.298438,
2011-08-03, 02:44:04,VALID,1000.6,VALID,0,VALID,85.528,VALID,0,VALID,23.6427,VALID,28,VALID,0.239063,
2011-08-03, 02:45:04,VALID,1000.57,VALID,0,VALID,85.1923,VALID,0,VALID,23.6817,VALID,28,VALID,0.207422,
2011-08-03, 02:46:04,VALID,1000.55,VALID,0,VALID,84.9558,VALID,0,VALID,23.6994,VALID,28,VALID,0.0117188,
2011-08-03, 02:47:04,VALID,1000.56,VALID,0,VALID,84.8337,VALID,0,VALID,23.7012,VALID,28,VALID,0.240625,
2011-08-03, 02:48:04,VALID,1000.59,VALID,0,VALID,84.8261,VALID,0,VALID,23.7189,VALID,28,VALID,0.0105469,
2011-08-03, 02:49:04,VALID,1000.58,VALID,0,VALID,84.7574,VALID,0,VALID,23.7793,VALID,28,VALID,0.109766,
2011-08-03, 02:50:04,VALID,1000.6,VALID,0,VALID,84.6201,VALID,0,VALID,23.797,VALID,28,VALID,0.0699219,
2011-08-03, 02:51:04,VALID,1000.61,VALID,0,VALID,84.5667,VALID,0,VALID,23.8183,VALID,28,VALID,0,
2011-08-03, 02:52:04,VALID,1000.66,VALID,0,VALID,84.5591,VALID,0.112286,VALID,23.7775,VALID,28,VALID,0,
2011-08-03, 02:53:04,VALID,1000.64,VALID,0,VALID,84.4904,VALID,0,VALID,23.7988,VALID,28,VALID,0,
2011-08-03, 02:54:04,VALID,1000.65,VALID,0,VALID,84.3378,VALID,0,VALID,23.7207,VALID,28,VALID,0,
2011-08-03, 02:55:04,VALID,1000.64,VALID,0,VALID,84.8032,VALID,0,VALID,23.6817,VALID,28,VALID,0,
2011-08-03, 02:56:04,VALID,1000.62,VALID,0,VALID,85.1618,VALID,0,VALID,23.6232,VALID,28,VALID,0.271875,
2011-08-03, 02:57:04,VALID,1000.58,VALID,0,VALID,85.3907,VALID,0.112286,VALID,23.5841,VALID,28,VALID,0.378516,
2011-08-03, 02:58:04,VALID,1000.58,VALID,0,VALID,85.4212,VALID,0,VALID,23.5433,VALID,28,VALID,0.433203,
2011-08-03, 02:59:04,VALID,1000.55,VALID,0,VALID,85.2915,VALID,0,VALID,23.5646,VALID,28,VALID,0.607422,
2011-08-03, 03:00:04,VALID,1000.56,VALID,0,VALID,85.2152,VALID,0,VALID,23.5433,VALID,28,VALID,0.579687,
2011-08-03, 03:01:04,VALID,1000.56,VALID,0,VALID,85.3144,VALID,0,VALID,23.6036,VALID,114,VALID,0.730859,
2011-08-03, 03:02:04,VALID,1000.52,VALID,0,VALID,85.1694,VALID,0,VALID,23.6019,VALID,114,VALID,0.878906,
2011-08-03, 03:03:04,VALID,1000.51,VALID,0,VALID,85.2763,VALID,0,VALID,23.6409,VALID,110,VALID,1.23242,
2011-08-03, 03:04:04,VALID,1000.54,VALID,0,VALID,85.2381,VALID,0,VALID,23.6214,VALID,111,VALID,1.29531,
2011-08-03, 03:05:04,VALID,1000.53,VALID,0,VALID,85.3144,VALID,0.112286,VALID,23.6019,VALID,113,VALID,1.25469,
2011-08-03, 03:06:04,VALID,1000.51,VALID,0,VALID,85.5051,VALID,0,VALID,23.5823,VALID,113,VALID,1.39219,
2011-08-03, 03:07:04,VALID,1000.52,VALID,0,VALID,85.6577,VALID,0,VALID,23.6036,VALID,112,VALID,1.38359,
2011-08-03, 03:08:04,VALID,1000.5,VALID,0,VALID,85.7646,VALID,0,VALID,23.5823,VALID,115,VALID,1.51406,
2011-08-03, 03:09:04,VALID,1000.48,VALID,0,VALID,85.7798,VALID,0,VALID,23.6232,VALID,120,VALID,1.50586,
2011-08-03, 03:10:04,VALID,1000.45,VALID,0,VALID,85.6501,VALID,0,VALID,23.6214,VALID,125,VALID,1.58789,
2011-08-03, 03:11:04,VALID,1000.44,VALID,0,VALID,85.5433,VALID,0,VALID,23.6427,VALID,139,VALID,1.12695,
2011-08-03, 03:12:04,VALID,1000.45,VALID,0,VALID,85.4441,VALID,0,VALID,23.6427,VALID,137,VALID,1.20195,
2011-08-03, 03:13:04,VALID,1000.4,VALID,0,VALID,85.1618,VALID,0,VALID,23.6817,VALID,135,VALID,1.03633,
2011-08-03, 03:14:04,VALID,1000.38,VALID,0,VALID,84.8643,VALID,0,VALID,23.6799,VALID,136,VALID,1.27852,
2011-08-03, 03:15:04,VALID,1000.38,VALID,0,VALID,84.8566,VALID,0,VALID,23.7207,VALID,144,VALID,1.48125,
2011-08-03, 03:16:04,VALID,1000.36,VALID,0,VALID,84.7956,VALID,0,VALID,23.7402,VALID,143,VALID,1.57617,
2011-08-03, 03:17:04,VALID,1000.31,VALID,0,VALID,84.6888,VALID,0,VALID,23.7793,VALID,131,VALID,1.58398,
2011-08-03, 03:18:04,VALID,1000.31,VALID,0,VALID,84.5057,VALID,0,VALID,23.7775,VALID,130,VALID,1.17109,
2011-08-03, 03:19:04,VALID,1000.3,VALID,0,VALID,84.4828,VALID,0,VALID,23.7775,VALID,122,VALID,0.786328,
2011-08-03, 03:20:04,VALID,1000.31,VALID,0,VALID,84.5591,VALID,0.112286,VALID,23.7579,VALID,120,VALID,0.737109,
2011-08-03, 03:21:04,VALID,1000.32,VALID,0,VALID,84.91,VALID,0,VALID,23.7189,VALID,120,VALID,0.931641,
2011-08-03, 03:22:04,VALID,1000.33,VALID,0,VALID,85.1771,VALID,0,VALID,23.7207,VALID,120,VALID,0.823438,
2011-08-03, 03:23:04,VALID,1000.33,VALID,0,VALID,85.5357,VALID,0,VALID,23.6622,VALID,120,VALID,0.653125,
2011-08-03, 03:24:04,VALID,1000.36,VALID,0,VALID,85.7569,VALID,0,VALID,23.6232,VALID,120,VALID,0.601563,
2011-08-03, 03:25:04,VALID,1000.31,VALID,0,VALID,86.0163,VALID,0,VALID,23.5841,VALID,120,VALID,0.611719,
2011-08-03, 03:26:04,VALID,1000.33,VALID,0,VALID,86.1994,VALID,0,VALID,23.5451,VALID,120,VALID,0.528516,
2011-08-03, 03:27:04,VALID,1000.32,VALID,0,VALID,86.4207,VALID,0,VALID,23.5256,VALID,120,VALID,0.510156,
2011-08-03, 03:28:04,VALID,1000.33,VALID,0,VALID,86.3978,VALID,0,VALID,23.5061,VALID,120,VALID,0.299609,
2011-08-03, 03:29:04,VALID,1000.28,VALID,0,VALID,86.2605,VALID,0,VALID,23.4671,VALID,114,VALID,0.622266,
2011-08-03, 03:30:04,VALID,1000.28,VALID,0,VALID,86.1994,VALID,0,VALID,23.389,VALID,31,VALID,0.764063,
2011-08-03, 03:31:04,VALID,1000.26,VALID,0,VALID,86.5275,VALID,0,VALID,23.2897,VALID,29,VALID,0.858594,
2011-08-03, 03:32:04,VALID,1000.27,VALID,0,VALID,86.9166,VALID,0,VALID,23.2524,VALID,31,VALID,0.778516,
2011-08-03, 03:33:04,VALID,1000.26,VALID,0,VALID,87.0463,VALID,0,VALID,23.1939,VALID,31,VALID,0.657031,
2011-08-03, 03:34:04,VALID,1000.28,VALID,0,VALID,87.2981,VALID,0,VALID,23.1141,VALID,31,VALID,0.452344,
2011-08-03, 03:35:04,VALID,1000.31,VALID,0,VALID,87.5575,VALID,0,VALID,23.0769,VALID,31,VALID,0.386719,
2011-08-03, 03:36:04,VALID,1000.28,VALID,0,VALID,87.9161,VALID,0,VALID,23.0573,VALID,31,VALID,0.547656,
2011-08-03, 03:37:04,VALID,1000.3,VALID,0,VALID,88.0382,VALID,0.112286,VALID,23.0183,VALID,31,VALID,0.419922,
2011-08-03, 03:38:04,VALID,1000.3,VALID,0,VALID,87.9085,VALID,0.112286,VALID,22.9208,VALID,31,VALID,0.527344,
2011-08-03, 03:39:04,VALID,1000.28,VALID,0,VALID,88.4883,VALID,0,VALID,22.9013,VALID,31,VALID,0.63125,
2011-08-03, 03:40:04,VALID,1000.28,VALID,0,VALID,88.8851,VALID,0,VALID,22.9403,VALID,31,VALID,0.624609,
2011-08-03, 03:41:04,VALID,1000.3,VALID,0,VALID,88.8393,VALID,0,VALID,22.8995,VALID,31,VALID,0.585938,
2011-08-03, 03:42:04,VALID,1000.29,VALID,0,VALID,88.9766,VALID,0,VALID,22.9013,VALID,31,VALID,0.415625,
2011-08-03, 03:43:04,VALID,1000.28,VALID,0,VALID,89.0606,VALID,0,VALID,22.9208,VALID,31,VALID,0.527734,
2011-08-03, 03:44:04,VALID,1000.3,VALID,0,VALID,88.9995,VALID,0,VALID,22.8995,VALID,2,VALID,0.575391,
2011-08-03, 03:45:04,VALID,1000.29,VALID,0,VALID,88.9614,VALID,0,VALID,22.9208,VALID,2,VALID,0.283203,
2011-08-03, 03:46:04,VALID,1000.28,VALID,0,VALID,88.5494,VALID,0,VALID,22.8623,VALID,2,VALID,0.248047,